Weather in Terentyevskoye

Russia / Kemerovo Oblast     54°05′54″N   86°56′53″E
temp.,
°C
wind,
m/s
gust,
m/s
humid.,
%
clouds,
%
prec.,
mm/h
press.,
hPa
HPBL,
m
9 august, tue
tue901:00+15nnw118544 0.0 100911
04:00+13ene00875 0.0 100810
07:00+15ne118797 0.0 100915
10:00+20e236592 0.0 1009340
13:00+25ene234899 0.0 1008868
16:00+27nne2344100 0.0 10071519
19:00+24nw346795 0.0 100788
22:00+18nne23816 0.0 100827
10 august, wed
wed1001:00+15e227870 0.1 100824
04:00+14e11865 0.0 100911
07:00+15e11840 0.0 100915
10:00+20ene23630 0.0 1010365
13:00+25ne23490 0.0 10091008
16:00+26n22450 0.0 10081483
19:00+23nnw476896 0.0 1008237
22:00+18nnw2269100 0.0 100919
11 august, thu
thu1101:00+16n1179100 0.0 100911
04:00+15nw118379 0.0 100911
07:00+15ese018399 0.0 100911
10:00+21ese126873 0.0 1010411
13:00+25ne115793 0.0 1010888
16:00+26n225158 0.0 10091099
19:00+24nnw35660 0.0 1008165
22:00+19n3372100 0.0 100929
12 august, fri
fri1201:00+16n22845 0.0 100920
04:00+14nnw22913 0.0 100915
07:00+15nnw22905 0.0 100970
10:00+20nnw33710 0.0 1010476
13:00+24nnw22590 0.0 1009953
16:00+25nnw44540 0.0 10081316
19:00+22nnw610610 0.0 1008462
22:00+15nw48680 0.0 1009143
13 august, sat
sat1301:00+12wnw22732 0.0 100932
04:00+11wnw21780 0.0 100911
07:00+11w11782 0.0 101023
10:00+17wsw12605 0.0 1010435
13:00+22wnw23465 0.0 10091227
16:00+24nw24355 0.0 10081713
19:00+23wnw11520 0.0 100812
22:00+16s22560 0.0 100811